Tracking 19212 objects as of 16-Jul-2018
HD Live streaming from Space Station
objects crossing your sky now

FENGYUN 1C DEB

Track FENGYUN 1C DEB now!
10-day predictions


NORAD ID: 32303
Int'l Code: 1999-025CWU
Perigee: 806.1 km
Apogee: 990.8 km
Inclination: 97.8 °
Period: 102.8 minutes
Semi major axis: 7269 km
RCS: 0.0109 m2 (small)
Launch date: May 10, 1999
Source: People's Republic of China (PRC)
Launch site: Taiyaun Space Center, China (TSC)

Note: This is SATELLITE DEBRIS
aabbcc
Your satellite tracking list
Your tracking list is empty




NASA's NSSDC Master Catalog

Two Line Element Set (TLE):
1 32303U 99025CWU 18196.11698836  .00001358  00000-0  87188-3 0  9995
2 32303  97.8309 318.4622 0127022 213.9356 145.3640 14.00721124546301
Source of the keplerian elements: AFSPC